Meadville, PA

8:24 PM EDT on June 28, 2017 (GMT -0400)
Port Meadville

Weather History for KGKJ - March, 2012

Change the Weather History Date:

Saturday, March 10, 2012

  Actual Average Record
Temperature  
Mean Temperature 31 °F -  
Max Temperature 39 °F 43 °F 67 °F (1977)
Min Temperature 23 °F 21 °F -7 °F (1984)
Degree Days  
Heating Degree Days 34    
Moisture  
Dew Point 14 °F    
Average Humidity 51    
Maximum Humidity 69    
Minimum Humidity 36    
Precipitation  
Precipitation 0.00 in - - ()
Sea Level Pressure  
Sea Level Pressure 30.48 in    
Wind  
Wind Speed 7 mph (SSW)    
Max Wind Speed 12 mph    
Max Gust Speed 20 mph    
Visibility 10 miles    
Events      
Averages and records for this station are not official NWS values.
T = Trace of Precipitation, MM = Missing Value Source: NWS Daily Summary

Daily Weather History Graph

Daily Weather History Graph

Search for Another Location

Airport or City:

Trip Planner

Search our weather history database for the weather conditions in past years. The results will help you decide how hot, cold, wet, or windy it might be!

Date:

Astronomy

Mar. 10, 2012 Rise Set
Actual Time 6:40 AM EST 6:22 PM EST
Civil Twilight 6:12 AM EST 6:50 PM EST
Nautical Twilight 5:40 AM EST 7:22 PM EST
Astronomical Twilight 5:07 AM EST 7:54 PM EST
Moon 9:36 PM EST (3/10) 7:31 AM EST (3/10)
Length of Visible Light 12h 37m
Length of Day
11h 42m
Waning Gibbous, 93% of the Moon is Illuminated
Mar 10
Waning Gibbous
Mar 14
Last Quarter
Mar 22
New
Mar 30
First Quarter
Apr 6
Full

Hourly Weather History & Observations

Time (EST) Temp. Windchill Dew Point Humidity Pressure Visibility Wind Dir Wind Speed Gust Speed Precip Events Conditions
12:53 AM 24.1 °F 14.4 °F 10.0 °F 55% 30.48 in 10.0 mi NNW 9.2 mph - N/A   Partly Cloudy
1:53 AM 23.0 °F 17.0 °F 10.0 °F 58% 30.50 in 10.0 mi NW 4.6 mph - N/A   Clear
2:53 AM 24.1 °F 19.7 °F 15.1 °F 69% 30.49 in 10.0 mi Variable 3.5 mph - 0.00 in   Overcast
3:26 AM 24.8 °F 16.1 °F 14.0 °F 64% 30.44 in 10.0 mi North 8.1 mph - N/A   Overcast
3:53 AM 24.1 °F 17.0 °F 12.9 °F 62% 30.49 in 10.0 mi NNW 5.8 mph - N/A   Overcast
4:53 AM 23.0 °F 13.1 °F 12.0 °F 63% 30.50 in 10.0 mi North 9.2 mph - N/A   Overcast
5:53 AM 23.0 °F 14.7 °F 12.9 °F 65% 30.53 in 10.0 mi North 6.9 mph - N/A   Overcast
6:53 AM 23.0 °F - 12.0 °F 63% 30.56 in 10.0 mi Calm Calm - N/A   Overcast
7:53 AM 24.1 °F 18.2 °F 12.0 °F 60% 30.57 in 10.0 mi North 4.6 mph - N/A   Scattered Clouds
8:53 AM 24.1 °F 19.7 °F 10.9 °F 57% 30.59 in 10.0 mi East 3.5 mph - N/A   Clear
9:53 AM 27.0 °F 23.0 °F 12.0 °F 53% 30.58 in 10.0 mi East 3.5 mph - N/A   Clear
10:53 AM 28.9 °F - 12.9 °F 51% 30.56 in 10.0 mi Calm Calm - N/A   Clear
11:53 AM 32.0 °F 23.6 °F 15.1 °F 50% 30.54 in 10.0 mi SSW 10.4 mph - N/A   Clear
12:53 PM 34.0 °F 28.0 °F 16.0 °F 48% 30.52 in 10.0 mi Variable 6.9 mph - N/A   Clear
1:53 PM 36.0 °F 29.0 °F 15.1 °F 43% 30.50 in 10.0 mi SSW 9.2 mph - N/A   Clear
2:53 PM 39.0 °F 32.3 °F 16.0 °F 39% 30.47 in 10.0 mi SSW 10.4 mph 17.3 mph N/A   Clear
3:53 PM 39.0 °F 31.8 °F 16.0 °F 39% 30.45 in 10.0 mi South 11.5 mph 17.3 mph N/A   Clear
4:53 PM 39.9 °F 33.4 °F 15.1 °F 36% 30.44 in 10.0 mi South 10.4 mph 19.6 mph N/A   Clear
5:53 PM 39.0 °F 32.3 °F 14.0 °F 36% 30.43 in 10.0 mi South 10.4 mph 17.3 mph N/A   Clear
6:53 PM 37.0 °F 31.6 °F 15.1 °F 41% 30.42 in 10.0 mi South 6.9 mph - N/A   Clear
7:53 PM 37.0 °F 32.4 °F 14.0 °F 39% 30.41 in 10.0 mi South 5.8 mph - N/A   Clear
8:53 PM 36.0 °F 30.3 °F 16.0 °F 44% 30.40 in 10.0 mi South 6.9 mph - N/A   Clear
9:53 PM 36.0 °F 29.0 °F 16.0 °F 44% 30.40 in 10.0 mi South 9.2 mph - N/A   Clear
10:53 PM 36.0 °F 29.6 °F 16.0 °F 44% 30.39 in 10.0 mi South 8.1 mph - N/A   Clear
11:53 PM 36.0 °F 29.6 °F 17.1 °F 46% 30.38 in 10.0 mi South 8.1 mph - N/A   Clear